| time (UTC) | temp F | wind direction | speed MPH | gust MPH | rain 1hr in | rain 24hr in | rain mn in | humidity % | barometer mb |
| 20260906083344 | 87 | 325 | 1.0 | 4.0 | 0.00 | 0.00 | 0.00 | 38 | 1014.1 |
| 20260906082844 | 86 | 337 | 1.0 | 4.0 | 0.00 | 0.00 | 0.00 | 40 | 1014.2 |
| 20260906082339 | 83 | 69 | 0.0 | 3.0 | 0.00 | 0.00 | 0.00 | 45 | 1014.3 |
| 20260906081835 | 82 | 75 | 0.0 | 0.0 | 0.00 | 0.00 | 0.00 | 47 | 1014.4 |
| 20260906081330 | 83 | 75 | 0.0 | 0.0 | 0.00 | 0.00 | 0.00 | 46 | 1014.5 |
| 20260906080826 | 83 | 96 | 1.0 | 2.0 | 0.00 | 0.00 | 0.00 | 46 | 1014.3 |
| 20260906080322 | 82 | 101 | 0.0 | 1.0 | 0.00 | 0.00 | 0.00 | 48 | 1014.5 |
| 20260906075821 | 82 | 104 | 0.0 | 0.0 | 0.00 | 0.00 | 0.00 | 49 | 1014.4 |
| 20260906075316 | 82 | 104 | 0.0 | 1.0 | 0.00 | 0.00 | 0.00 | 49 | 1014.5 |
| 20260906074812 | 82 | 55 | 0.0 | 1.0 | 0.00 | 0.00 | 0.00 | 49 | 1014.4 |
| 20260906074311 | 82 | 89 | 0.0 | 0.0 | 0.00 | 0.00 | 0.00 | 48 | 1014.2 |
| 20260906073810 | 83 | 89 | 0.0 | 0.0 | 0.00 | 0.00 | 0.00 | 46 | 1014.3 |
| 20260906073305 | 82 | 89 | 1.0 | 1.0 | 0.00 | 0.00 | 0.00 | 48 | 1014.3 |
| 20260906072802 | 82 | 110 | 0.0 | 0.0 | 0.00 | 0.00 | 0.00 | 48 | 1014.5 |
| 20260906072257 | 83 | 110 | 0.0 | 0.0 | 0.00 | 0.00 | 0.00 | 48 | 1014.7 |
| 20260906071753 | 83 | 110 | 0.0 | 0.0 | 0.00 | 0.00 | 0.00 | 48 | 1014.4 |
| 20260906071253 | 83 | 30 | 0.0 | 2.0 | 0.00 | 0.00 | 0.00 | 49 | 1014.6 |
| 20260906070749 | 83 | 333 | 0.0 | 2.0 | 0.00 | 0.00 | 0.00 | 50 | 1014.6 |
| 20260906070245 | 82 | 343 | 0.0 | 1.0 | 0.00 | 0.00 | 0.00 | 51 | 1014.6 |
| 20260906065744 | 83 | 15 | 0.0 | 0.0 | 0.00 | 0.00 | 0.00 | 50 | 1014.6 |
| 20260906065240 | 83 | 15 | 0.0 | 0.0 | 0.00 | 0.00 | 0.00 | 50 | 1014.6 |
| 20260906064735 | 83 | 15 | 0.0 | 0.0 | 0.00 | 0.00 | 0.00 | 49 | 1014.9 |
| 20260906064231 | 84 | 315 | 0.0 | 1.0 | 0.00 | 0.00 | 0.00 | 49 | 1014.7 |
| 20260906063726 | 83 | 78 | 1.0 | 2.0 | 0.00 | 0.00 | 0.00 | 48 | 1014.6 |
| 20260906063221 | 83 | 89 | 1.0 | 2.0 | 0.00 | 0.00 | 0.00 | 48 | 1014.6 |
| 20260906062716 | 84 | 116 | 0.0 | 0.0 | 0.00 | 0.00 | 0.00 | 47 | 1014.5 |
| 20260906062215 | 84 | 116 | 0.0 | 0.0 | 0.00 | 0.00 | 0.00 | 48 | 1014.4 |
| 20260906061712 | 85 | 116 | 0.0 | 1.0 | 0.00 | 0.00 | 0.00 | 45 | 1014.6 |
| 20260906061208 | 84 | 100 | 1.0 | 1.0 | 0.00 | 0.00 | 0.00 | 45 | 1014.5 |
| 20260906060703 | 84 | 89 | 0.0 | 1.0 | 0.00 | 0.00 | 0.00 | 46 | 1014.7 |
| 20260906060200 | 85 | 117 | 0.0 | 0.0 | 0.00 | 0.00 | 0.00 | 46 | 1014.8 |
| 20260906055655 | 85 | 117 | 0.0 | 1.0 | 0.00 | 0.00 | 0.00 | 45 | 1014.6 |
| 20260906055150 | 85 | 201 | 0.0 | 1.0 | 0.00 | 0.00 | 0.00 | 46 | 1014.7 |
| 20260906054646 | 86 | 205 | 0.0 | 0.0 | 0.00 | 0.00 | 0.00 | 44 | 1014.8 |
| 20260906054140 | 86 | 205 | 0.0 | 1.0 | 0.00 | 0.00 | 0.00 | 41 | 1014.9 |
| 20260906053637 | 87 | 142 | 0.0 | 1.0 | 0.00 | 0.00 | 0.00 | 40 | 1015.0 |
| 20260906053132 | 88 | 164 | 0.0 | 0.0 | 0.00 | 0.00 | 0.00 | 38 | 1014.6 |
| 20260906052627 | 87 | 217 | 0.0 | 0.0 | 0.00 | 0.00 | 0.00 | 39 | 1014.6 |
| 20260906052124 | 87 | 218 | 0.0 | 2.0 | 0.00 | 0.00 | 0.00 | 40 | 1014.7 |
| 20260906051620 | 87 | 230 | 0.0 | 0.0 | 0.00 | 0.00 | 0.00 | 39 | 1014.8 |
| 20260906051114 | 88 | 230 | 0.0 | 0.0 | 0.00 | 0.00 | 0.00 | 39 | 1014.8 |
| 20260906050610 | 88 | 230 | 0.0 | 0.0 | 0.00 | 0.00 | 0.00 | 39 | 1014.7 |
| 20260906050105 | 89 | 230 | 0.0 | 0.0 | 0.00 | 0.00 | 0.00 | 37 | 1014.7 |
| 20260906045603 | 89 | 217 | 0.0 | 2.0 | 0.00 | 0.00 | 0.00 | 36 | 1014.7 |
| 20260906045059 | 90 | 310 | 0.0 | 3.0 | 0.00 | 0.00 | 0.00 | 36 | 1014.7 |
| 20260906044554 | 90 | 269 | 0.0 | 3.0 | 0.00 | 0.00 | 0.00 | 35 | 1014.6 |
| 20260906044049 | 90 | 234 | 0.0 | 2.0 | 0.00 | 0.00 | 0.00 | 35 | 1014.6 |
| 20260906043545 | 90 | 345 | 0.0 | 1.0 | 0.00 | 0.00 | 0.00 | 36 | 1014.7 |
| 20260906043041 | 91 | 217 | 0.0 | 1.0 | 0.00 | 0.00 | 0.00 | 35 | 1014.8 |
| 20260906042540 | 91 | 318 | 1.0 | 2.0 | 0.00 | 0.00 | 0.00 | 35 | 1014.8 |
| 20260906042034 | 92 | 317 | 2.0 | 3.0 | 0.00 | 0.00 | 0.00 | 33 | 1014.8 |
| 20260906041525 | 93 | 262 | 1.0 | 5.0 | 0.00 | 0.00 | 0.00 | 33 | 1014.8 |
| 20260906041020 | 93 | 329 | 3.0 | 5.0 | 0.00 | 0.00 | 0.00 | 33 | 1014.6 |
| 20260906040515 | 92 | 327 | 0.0 | 5.0 | 0.00 | 0.00 | 0.00 | 33 | 1014.6 |
| 20260906040010 | 92 | 326 | 2.0 | 2.0 | 0.00 | 0.00 | 0.00 | 33 | 1014.8 |
| 20260906035505 | 93 | 320 | 0.0 | 4.0 | 0.00 | 0.00 | 0.00 | 33 | 1014.7 |
| 20260906035001 | 93 | 324 | 1.0 | 4.0 | 0.00 | 0.00 | 0.00 | 33 | 1014.7 |
| 20260906034501 | 93 | 327 | 2.0 | 7.0 | 0.00 | 0.00 | 0.00 | 32 | 1014.8 |
| 20260906033956 | 93 | 325 | 2.0 | 7.0 | 0.00 | 0.00 | 0.00 | 32 | 1014.6 |
| 20260906033450 | 93 | 320 | 4.0 | 6.0 | 0.00 | 0.00 | 0.00 | 32 | 1014.4 |
| 20260906032946 | 93 | 330 | 2.0 | 5.0 | 0.00 | 0.00 | 0.00 | 32 | 1014.6 |
| 20260906032443 | 93 | 314 | 5.0 | 9.0 | 0.00 | 0.00 | 0.00 | 32 | 1014.4 |
| 20260906031937 | 94 | 331 | 3.0 | 9.0 | 0.00 | 0.00 | 0.00 | 31 | 1014.6 |
| 20260906031432 | 94 | 325 | 3.0 | 8.0 | 0.00 | 0.00 | 0.00 | 31 | 1014.3 |
| 20260906030927 | 94 | 332 | 3.0 | 6.0 | 0.00 | 0.00 | 0.00 | 31 | 1014.3 |
| 20260906030422 | 94 | 313 | 5.0 | 10.0 | 0.00 | 0.00 | 0.00 | 31 | 1014.3 |
| 20260906025916 | 94 | 331 | 4.0 | 9.0 | 0.00 | 0.00 | 0.00 | 31 | 1014.3 |
| 20260906025411 | 94 | 347 | 5.0 | 7.0 | 0.00 | 0.00 | 0.00 | 31 | 1014.4 |
| 20260906024910 | 94 | 327 | 4.0 | 5.0 | 0.00 | 0.00 | 0.00 | 31 | 1014.1 |
| 20260906024409 | 94 | 299 | 2.0 | 7.0 | 0.00 | 0.00 | 0.00 | 31 | 1013.9 |
| 20260906023904 | 94 | 320 | 2.0 | 5.0 | 0.00 | 0.00 | 0.00 | 31 | 1014.1 |
| 20260906023401 | 94 | 273 | 2.0 | 7.0 | 0.00 | 0.00 | 0.00 | 31 | 1014.0 |
| 20260906022900 | 94 | 322 | 3.0 | 6.0 | 0.00 | 0.00 | 0.00 | 31 | 1013.9 |
| 20260906022355 | 95 | 309 | 1.0 | 7.0 | 0.00 | 0.00 | 0.00 | 31 | 1014.0 |
| 20260906021851 | 95 | 309 | 4.0 | 7.0 | 0.00 | 0.00 | 0.00 | 31 | 1014.0 |
| 20260906021350 | 95 | 297 | 6.0 | 12.0 | 0.00 | 0.00 | 0.00 | 30 | 1013.8 |
| 20260906020845 | 95 | 308 | 5.0 | 7.0 | 0.00 | 0.00 | 0.00 | 31 | 1013.8 |
| 20260906020345 | 95 | 322 | 4.0 | 8.0 | 0.00 | 0.00 | 0.00 | 31 | 1013.8 |
| 20260906015839 | 95 | 245 | 3.0 | 11.0 | 0.00 | 0.00 | 0.00 | 31 | 1013.8 |
| 20260906015338 | 95 | 315 | 0.0 | 10.0 | 0.00 | 0.00 | 0.00 | 31 | 1014.1 |
| 20260906014833 | 96 | 286 | 4.0 | 13.0 | 0.00 | 0.00 | 0.00 | 30 | 1013.8 |
| 20260906014327 | 96 | 340 | 5.0 | 9.0 | 0.00 | 0.00 | 0.00 | 30 | 1014.0 |
| 20260906013824 | 96 | 299 | 5.0 | 9.0 | 0.00 | 0.00 | 0.00 | 30 | 1014.1 |
| 20260906013319 | 96 | 321 | 3.0 | 7.0 | 0.00 | 0.00 | 0.00 | 30 | 1013.9 |
| 20260906012815 | 96 | 322 | 3.0 | 8.0 | 0.00 | 0.00 | 0.00 | 30 | 1014.1 |
| 20260906012314 | 96 | 325 | 3.0 | 10.0 | 0.00 | 0.00 | 0.00 | 29 | 1014.1 |
| 20260906011809 | 97 | 340 | 10.0 | 10.0 | 0.00 | 0.00 | 0.00 | 29 | 1014.1 |
| 20260906011304 | 97 | 234 | 3.0 | 7.0 | 0.00 | 0.00 | 0.00 | 29 | 1014.0 |
| 20260906010800 | 97 | 275 | 4.0 | 7.0 | 0.00 | 0.00 | 0.00 | 28 | 1014.1 |
| 20260906010256 | 97 | 223 | 2.0 | 7.0 | 0.00 | 0.00 | 0.00 | 28 | 1014.2 |
| 20260906005751 | 98 | 307 | 2.0 | 8.0 | 0.00 | 0.00 | 0.00 | 28 | 1014.0 |
| 20260906005250 | 98 | 256 | 5.0 | 6.0 | 0.00 | 0.00 | 0.00 | 29 | 1014.2 |
| 20260906004749 | 98 | 314 | 7.0 | 13.0 | 0.00 | 0.00 | 0.00 | 27 | 1014.0 |
| 20260906004244 | 99 | 311 | 5.0 | 13.0 | 0.00 | 0.00 | 0.00 | 28 | 1013.9 |
| 20260906003739 | 99 | 313 | 8.0 | 11.0 | 0.00 | 0.00 | 0.00 | 27 | 1014.2 |
| 20260906003234 | 100 | 266 | 0.0 | 6.0 | 0.00 | 0.00 | 0.00 | 27 | 1014.3 |
| 20260906002734 | 100 | 272 | 3.0 | 9.0 | 0.00 | 0.00 | 0.00 | 27 | 1014.3 |
| 20260906002229 | 100 | 330 | 5.0 | 11.0 | 0.00 | 0.00 | 0.00 | 27 | 1014.1 |
| 20260906001724 | 99 | 238 | 5.0 | 12.0 | 0.00 | 0.00 | 0.00 | 27 | 1014.2 |
| 20260906001219 | 100 | 319 | 6.0 | 11.0 | 0.00 | 0.00 | 0.00 | 27 | 1014.2 |
| 20260906000714 | 100 | 309 | 6.0 | 12.0 | 0.00 | 0.00 | 0.00 | 27 | 1013.9 |
| 20260906000212 | 100 | 311 | 3.0 | 9.0 | 0.00 | 0.00 | 0.00 | 27 | 1014.0 |
| 20260905235709 | 100 | 322 | 5.0 | 10.0 | 0.00 | 0.00 | 0.00 | 27 | 1014.1 |
| 20260905235204 | 100 | 313 | 5.0 | 8.0 | 0.00 | 0.00 | 0.00 | 27 | 1014.0 |
| 20260905234659 | 100 | 291 | 4.0 | 11.0 | 0.00 | 0.00 | 0.00 | 26 | 1013.9 |
| 20260905234155 | 100 | 347 | 3.0 | 6.0 | 0.00 | 0.00 | 0.00 | 27 | 1014.1 |
| 20260905233650 | 100 | 324 | 7.0 | 11.0 | 0.00 | 0.00 | 0.00 | 27 | 1014.1 |
| 20260905233149 | 100 | 263 | 7.0 | 13.0 | 0.00 | 0.00 | 0.00 | 27 | 1014.0 |
| 20260905232644 | 100 | 333 | 2.0 | 8.0 | 0.00 | 0.00 | 0.00 | 27 | 1014.1 |
| 20260905232140 | 100 | 292 | 4.0 | 12.0 | 0.00 | 0.00 | 0.00 | 27 | 1014.0 |
| 20260905231635 | 101 | 283 | 3.0 | 10.0 | 0.00 | 0.00 | 0.00 | 28 | 1014.0 |
| 20260905231132 | 102 | 348 | 4.0 | 13.0 | 0.00 | 0.00 | 0.00 | 26 | 1014.0 |
| 20260905230627 | 101 | 325 | 4.0 | 12.0 | 0.00 | 0.00 | 0.00 | 26 | 1014.0 |
| 20260905230124 | 102 | 262 | 7.0 | 11.0 | 0.00 | 0.00 | 0.00 | 27 | 1014.0 |
| 20260905225619 | 102 | 258 | 4.0 | 10.0 | 0.00 | 0.00 | 0.00 | 27 | 1014.0 |
| 20260905225114 | 102 | 301 | 3.0 | 11.0 | 0.00 | 0.00 | 0.00 | 28 | 1014.1 |
| 20260905224614 | 101 | 341 | 3.0 | 8.0 | 0.00 | 0.00 | 0.00 | 29 | 1013.8 |
| 20260905224113 | 101 | 309 | 4.0 | 9.0 | 0.00 | 0.00 | 0.00 | 29 | 1014.0 |
| 20260905223610 | 101 | 328 | 6.0 | 11.0 | 0.00 | 0.00 | 0.00 | 29 | 1014.1 |
| 20260905223107 | 100 | 355 | 4.0 | 14.0 | 0.00 | 0.00 | 0.00 | 30 | 1014.2 |
| 20260905222607 | 100 | 328 | 4.0 | 13.0 | 0.00 | 0.00 | 0.00 | 30 | 1014.2 |
| 20260905222102 | 102 | 271 | 5.0 | 7.0 | 0.00 | 0.00 | 0.00 | 29 | 1014.2 |
| 20260905221558 | 101 | 307 | 4.0 | 12.0 | 0.00 | 0.00 | 0.00 | 30 | 1014.1 |
| 20260905221054 | 102 | 330 | 0.0 | 7.0 | 0.00 | 0.00 | 0.00 | 29 | 1014.2 |
| 20260905220549 | 102 | 266 | 2.0 | 9.0 | 0.00 | 0.00 | 0.00 | 30 | 1014.5 |
| 20260905220045 | 102 | 242 | 3.0 | 7.0 | 0.00 | 0.00 | 0.00 | 30 | 1014.4 |
| 20260905215544 | 103 | 304 | 3.0 | 8.0 | 0.00 | 0.00 | 0.00 | 29 | 1014.5 |
| 20260905215040 | 102 | 284 | 0.0 | 5.0 | 0.00 | 0.00 | 0.00 | 29 | 1014.7 |
| 20260905214536 | 101 | 307 | 1.0 | 3.0 | 0.00 | 0.00 | 0.00 | 32 | 1014.6 |
| 20260905214031 | 102 | 178 | 3.0 | 6.0 | 0.00 | 0.00 | 0.00 | 30 | 1014.7 |
| 20260905213526 | 101 | 314 | 0.0 | 5.0 | 0.00 | 0.00 | 0.00 | 30 | 1014.9 |
| 20260905213022 | 101 | 246 | 2.0 | 5.0 | 0.00 | 0.00 | 0.00 | 31 | 1015.1 |
| 20260905212516 | 101 | 313 | 5.0 | 9.0 | 0.00 | 0.00 | 0.00 | 30 | 1014.9 |
| 20260905212017 | 102 | 231 | 4.0 | 8.0 | 0.00 | 0.00 | 0.00 | 30 | 1015.1 |
| 20260905211511 | 101 | 296 | 3.0 | 9.0 | 0.00 | 0.00 | 0.00 | 31 | 1015.2 |
| 20260905211008 | 101 | 231 | 0.0 | 4.0 | 0.00 | 0.00 | 0.00 | 30 | 1015.2 |
| 20260905210503 | 101 | 69 | 5.0 | 8.0 | 0.00 | 0.00 | 0.00 | 30 | 1015.3 |
| 20260905210002 | 101 | 343 | 3.0 | 6.0 | 0.00 | 0.00 | 0.00 | 31 | 1015.1 |
| 20260905205457 | 100 | 224 | 1.0 | 5.0 | 0.00 | 0.00 | 0.00 | 35 | 1015.2 |
| 20260905204955 | 101 | 281 | 2.0 | 3.0 | 0.00 | 0.00 | 0.00 | 31 | 1015.5 |
| 20260905204451 | 100 | 166 | 3.0 | 4.0 | 0.00 | 0.00 | 0.00 | 31 | 1015.5 |
| 20260905203951 | 100 | 60 | 2.0 | 4.0 | 0.00 | 0.00 | 0.00 | 30 | 1015.4 |
| 20260905203446 | 99 | 50 | 0.0 | 6.0 | 0.00 | 0.00 | 0.00 | 32 | 1015.7 |
| 20260905202942 | 100 | 258 | 5.0 | 7.0 | 0.00 | 0.00 | 0.00 | 32 | 1015.7 |
| 20260905202442 | 100 | 18 | 3.0 | 4.0 | 0.00 | 0.00 | 0.00 | 31 | 1015.7 |
| 20260905201937 | 99 | 12 | 4.0 | 7.0 | 0.00 | 0.00 | 0.00 | 31 | 1016.0 |
| 20260905201432 | 99 | 329 | 4.0 | 5.0 | 0.00 | 0.00 | 0.00 | 34 | 1015.8 |
| 20260905200927 | 100 | 328 | 2.0 | 9.0 | 0.00 | 0.00 | 0.00 | 31 | 1016.2 |
| 20260905200423 | 98 | 281 | 2.0 | 3.0 | 0.00 | 0.00 | 0.00 | 32 | 1016.2 |
| 20260905195920 | 99 | 315 | 2.0 | 4.0 | 0.00 | 0.00 | 0.00 | 33 | 1016.2 |
| 20260905195417 | 98 | 260 | 4.0 | 7.0 | 0.00 | 0.00 | 0.00 | 32 | 1016.1 |
| 20260905194912 | 97 | 261 | 0.0 | 6.0 | 0.00 | 0.00 | 0.00 | 32 | 1016.3 |
| 20260905194412 | 98 | 202 | 2.0 | 5.0 | 0.00 | 0.00 | 0.00 | 32 | 1016.5 |
| 20260905193911 | 99 | 246 | 4.0 | 5.0 | 0.00 | 0.00 | 0.00 | 33 | 1016.5 |
| 20260905193406 | 98 | 107 | 1.0 | 3.0 | 0.00 | 0.00 | 0.00 | 32 | 1016.7 |
| 20260905192901 | 98 | 17 | 0.0 | 3.0 | 0.00 | 0.00 | 0.00 | 32 | 1016.4 |
| 20260905192357 | 98 | 54 | 3.0 | 5.0 | 0.00 | 0.00 | 0.00 | 33 | 1016.7 |
| 20260905191857 | 97 | 6 | 4.0 | 5.0 | 0.00 | 0.00 | 0.00 | 32 | 1016.6 |
| 20260905191356 | 98 | 243 | 0.0 | 3.0 | 0.00 | 0.00 | 0.00 | 35 | 1016.6 |
| 20260905190856 | 97 | 81 | 4.0 | 5.0 | 0.00 | 0.00 | 0.00 | 34 | 1017.0 |
| 20260905190354 | 97 | 63 | 0.0 | 5.0 | 0.00 | 0.00 | 0.00 | 33 | 1016.9 |
| 20260905185847 | 96 | 201 | 2.0 | 4.0 | 0.00 | 0.00 | 0.00 | 34 | 1017.2 |
| 20260905185342 | 97 | 301 | 1.0 | 4.0 | 0.00 | 0.00 | 0.00 | 34 | 1017.2 |
| 20260905184841 | 96 | 64 | 2.0 | 4.0 | 0.00 | 0.00 | 0.00 | 33 | 1017.2 |
| 20260905184341 | 96 | 289 | 3.0 | 7.0 | 0.00 | 0.00 | 0.00 | 34 | 1017.1 |
| 20260905183839 | 96 | 238 | 2.0 | 5.0 | 0.00 | 0.00 | 0.00 | 34 | 1017.3 |
| 20260905183335 | 96 | 269 | 3.0 | 5.0 | 0.00 | 0.00 | 0.00 | 34 | 1017.2 |
| 20260905182830 | 95 | 280 | 1.0 | 6.0 | 0.00 | 0.00 | 0.00 | 34 | 1017.4 |
| 20260905182329 | 95 | 332 | 3.0 | 7.0 | 0.00 | 0.00 | 0.00 | 35 | 1017.4 |
| 20260905181825 | 95 | 239 | 4.0 | 5.0 | 0.00 | 0.00 | 0.00 | 34 | 1017.8 |
| 20260905181319 | 97 | 298 | 2.0 | 3.0 | 0.00 | 0.00 | 0.00 | 35 | 1017.8 |
| 20260905180817 | 96 | 236 | 1.0 | 3.0 | 0.00 | 0.00 | 0.00 | 34 | 1017.5 |
| 20260905180313 | 95 | 300 | 1.0 | 4.0 | 0.00 | 0.00 | 0.00 | 36 | 1017.6 |
| 20260905175808 | 94 | 24 | 0.0 | 6.0 | 0.00 | 0.00 | 0.00 | 35 | 1017.6 |
| 20260905175306 | 96 | 238 | 3.0 | 4.0 | 0.00 | 0.00 | 0.00 | 35 | 1017.4 |
| 20260905174757 | 96 | 9 | 2.0 | 3.0 | 0.00 | 0.00 | 0.00 | 34 | 1017.7 |
| 20260905174253 | 95 | 334 | 4.0 | 5.0 | 0.00 | 0.00 | 0.00 | 35 | 1017.6 |
| 20260905173749 | 96 | 310 | 3.0 | 3.0 | 0.00 | 0.00 | 0.00 | 34 | 1017.6 |
| 20260905173245 | 95 | 343 | 3.0 | 4.0 | 0.00 | 0.00 | 0.00 | 34 | 1017.7 |
| 20260905172744 | 95 | 80 | 1.0 | 4.0 | 0.00 | 0.00 | 0.00 | 34 | 1017.8 |
| 20260905172243 | 95 | 257 | 5.0 | 5.0 | 0.00 | 0.00 | 0.00 | 35 | 1017.6 |
| 20260905171740 | 96 | 326 | 0.0 | 3.0 | 0.00 | 0.00 | 0.00 | 34 | 1017.7 |
| 20260905171236 | 96 | 7 | 3.0 | 5.0 | 0.00 | 0.00 | 0.00 | 34 | 1017.5 |
| 20260905170732 | 95 | 259 | 1.0 | 3.0 | 0.00 | 0.00 | 0.00 | 40 | 1017.6 |
| 20260905170228 | 94 | 110 | 0.0 | 1.0 | 0.00 | 0.00 | 0.00 | 36 | 1017.6 |
| 20260905165727 | 94 | 98 | 2.0 | 3.0 | 0.00 | 0.00 | 0.00 | 37 | 1017.7 |
| 20260905165222 | 94 | 5 | 1.0 | 3.0 | 0.00 | 0.00 | 0.00 | 35 | 1017.7 |
| 20260905164716 | 93 | 322 | 0.0 | 3.0 | 0.00 | 0.00 | 0.00 | 35 | 1017.8 |
| 20260905164211 | 94 | 119 | 0.0 | 3.0 | 0.00 | 0.00 | 0.00 | 39 | 1017.6 |
| 20260905163707 | 93 | 52 | 3.0 | 3.0 | 0.00 | 0.00 | 0.00 | 36 | 1017.5 |
| 20260905163203 | 93 | 346 | 0.0 | 3.0 | 0.00 | 0.00 | 0.00 | 38 | 1017.8 |
| 20260905162659 | 93 | 68 | 2.0 | 4.0 | 0.00 | 0.00 | 0.00 | 37 | 1017.6 |
| 20260905162158 | 94 | 82 | 1.0 | 3.0 | 0.00 | 0.00 | 0.00 | 38 | 1017.6 |
| 20260905161653 | 92 | 200 | 0.0 | 3.0 | 0.00 | 0.00 | 0.00 | 39 | 1017.6 |
| 20260905161150 | 93 | 261 | 0.0 | 2.0 | 0.00 | 0.00 | 0.00 | 39 | 1017.8 |
| 20260905160645 | 92 | 118 | 1.0 | 2.0 | 0.00 | 0.00 | 0.00 | 42 | 1017.4 |
| 20260905160144 | 91 | 82 | 1.0 | 3.0 | 0.00 | 0.00 | 0.00 | 40 | 1017.6 |
| 20260905155639 | 91 | 333 | 0.0 | 2.0 | 0.00 | 0.00 | 0.00 | 39 | 1017.7 |
| 20260905155137 | 91 | 274 | 2.0 | 2.0 | 0.00 | 0.00 | 0.00 | 42 | 1017.6 |
| 20260905154632 | 92 | 152 | 1.0 | 2.0 | 0.00 | 0.00 | 0.00 | 40 | 1017.6 |
| 20260905154128 | 90 | 224 | 0.0 | 2.0 | 0.00 | 0.00 | 0.00 | 43 | 1017.7 |
| 20260905153623 | 89 | 164 | 0.0 | 3.0 | 0.00 | 0.00 | 0.00 | 46 | 1017.7 |
| 20260905153119 | 89 | 246 | 0.0 | 3.0 | 0.00 | 0.00 | 0.00 | 44 | 1017.4 |
| 20260905152614 | 90 | 131 | 0.0 | 2.0 | 0.00 | 0.00 | 0.00 | 42 | 1017.2 |
| 20260905152108 | 90 | 81 | 0.0 | 2.0 | 0.00 | 0.00 | 0.00 | 45 | 1017.4 |
| 20260905151602 | 90 | 62 | 0.0 | 1.0 | 0.00 | 0.00 | 0.00 | 46 | 1017.3 |
| 20260905151058 | 88 | 117 | 0.0 | 0.0 | 0.00 | 0.00 | 0.00 | 49 | 1017.1 |
| 20260905150553 | 87 | 117 | 0.0 | 0.0 | 0.00 | 0.00 | 0.00 | 47 | 1017.3 |
| 20260905150051 | 86 | 117 | 0.0 | 1.0 | 0.00 | 0.00 | 0.00 | 48 | 1017.2 |
| 20260905145544 | 87 | 89 | 0.0 | 1.0 | 0.00 | 0.00 | 0.00 | 49 | 1017.3 |
| 20260905145044 | 85 | 147 | 0.0 | 1.0 | 0.00 | 0.00 | 0.00 | 50 | 1017.4 |
| 20260905144539 | 85 | 193 | 0.0 | 3.0 | 0.00 | 0.00 | 0.00 | 50 | 1017.1 |
| 20260905144038 | 85 | 212 | 0.0 | 3.0 | 0.00 | 0.00 | 0.00 | 51 | 1017.3 |
| 20260905143537 | 86 | 218 | 0.0 | 3.0 | 0.00 | 0.00 | 0.00 | 50 | 1017.1 |
| 20260905143032 | 87 | 153 | 0.0 | 2.0 | 0.00 | 0.00 | 0.00 | 49 | 1017.0 |
| 20260905142531 | 85 | 135 | 0.0 | 2.0 | 0.00 | 0.00 | 0.00 | 51 | 1017.2 |
| 20260905142026 | 86 | 242 | 0.0 | 0.0 | 0.00 | 0.00 | 0.00 | 50 | 1017.0 |
| 20260905141521 | 85 | 229 | 0.0 | 2.0 | 0.00 | 0.00 | 0.00 | 51 | 1017.0 |
| 20260905141018 | 85 | 147 | 0.0 | 2.0 | 0.00 | 0.00 | 0.00 | 53 | 1017.0 |
| 20260905140513 | 83 | 217 | 0.0 | 2.0 | 0.00 | 0.00 | 0.00 | 57 | 1017.0 |
| 20260905140012 | 82 | 129 | 0.0 | 0.0 | 0.00 | 0.00 | 0.00 | 58 | 1017.0 |
| 20260905135507 | 82 | 75 | 0.0 | 0.0 | 0.00 | 0.00 | 0.00 | 60 | 1016.9 |
| 20260905135002 | 81 | 75 | 0.0 | 0.0 | 0.00 | 0.00 | 0.00 | 61 | 1016.5 |
| 20260905134501 | 80 | 95 | 0.0 | 1.0 | 0.00 | 0.00 | 0.00 | 61 | 1016.8 |
| 20260905134000 | 80 | 139 | 0.0 | 2.0 | 0.00 | 0.00 | 0.00 | 61 | 1016.6 |
| 20260905133455 | 80 | 147 | 1.0 | 2.0 | 0.00 | 0.00 | 0.00 | 62 | 1016.5 |
| 20260905132955 | 79 | 55 | 0.0 | 1.0 | 0.00 | 0.00 | 0.00 | 62 | 1016.6 |
| 20260905132450 | 78 | 32 | 0.0 | 1.0 | 0.00 | 0.00 | 0.00 | 64 | 1016.4 |
| 20260905131945 | 78 | 55 | 0.0 | 0.0 | 0.00 | 0.00 | 0.00 | 64 | 1016.5 |
| 20260905131442 | 77 | 42 | 1.0 | 2.0 | 0.00 | 0.00 | 0.00 | 64 | 1016.4 |
| 20260905130942 | 77 | 333 | 0.0 | 2.0 | 0.00 | 0.00 | 0.00 | 64 | 1016.4 |
| 20260905130435 | 77 | 128 | 1.0 | 2.0 | 0.00 | 0.00 | 0.00 | 65 | 1016.2 |
| 20260905125930 | 77 | 217 | 0.0 | 0.0 | 0.00 | 0.00 | 0.00 | 64 | 1016.2 |
| 20260905125425 | 77 | 60 | 0.0 | 0.0 | 0.00 | 0.00 | 0.00 | 65 | 1016.2 |
| 20260905124920 | 77 | 47 | 0.0 | 1.0 | 0.00 | 0.00 | 0.00 | 64 | 1016.1 |
| 20260905124417 | 77 | 50 | 0.0 | 1.0 | 0.00 | 0.00 | 0.00 | 63 | 1016.0 |
| 20260905123916 | 78 | 24 | 0.0 | 1.0 | 0.00 | 0.00 | 0.00 | 63 | 1016.1 |
| 20260905123413 | 78 | 38 | 1.0 | 2.0 | 0.00 | 0.00 | 0.00 | 62 | 1016.1 |
| 20260905122908 | 78 | 142 | 0.0 | 1.0 | 0.00 | 0.00 | 0.00 | 62 | 1015.8 |
| 20260905122408 | 78 | 37 | 0.0 | 2.0 | 0.00 | 0.00 | 0.00 | 62 | 1016.2 |
| 20260905121903 | 78 | 25 | 0.0 | 0.0 | 0.00 | 0.00 | 0.00 | 61 | 1016.0 |
| 20260905121359 | 78 | 131 | 0.0 | 0.0 | 0.00 | 0.00 | 0.00 | 60 | 1015.8 |
| 20260905120858 | 78 | 121 | 0.0 | 2.0 | 0.00 | 0.00 | 0.00 | 59 | 1015.6 |
| 20260905120357 | 78 | 154 | 0.0 | 1.0 | 0.00 | 0.00 | 0.00 | 58 | 1015.8 |
| 20260905115853 | 78 | 142 | 0.0 | 2.0 | 0.00 | 0.00 | 0.00 | 59 | 1015.8 |
| 20260905115352 | 79 | 44 | 0.0 | 0.0 | 0.00 | 0.00 | 0.00 | 57 | 1015.6 |
| 20260905114847 | 80 | 117 | 0.0 | 1.0 | 0.00 | 0.00 | 0.00 | 56 | 1015.6 |
| 20260905114346 | 80 | 64 | 0.0 | 2.0 | 0.00 | 0.00 | 0.00 | 55 | 1015.5 |
| 20260905113845 | 81 | 64 | 1.0 | 2.0 | 0.00 | 0.00 | 0.00 | 54 | 1015.1 |
| 20260905113341 | 81 | 37 | 1.0 | 1.0 | 0.00 | 0.00 | 0.00 | 53 | 1015.6 |
| 20260905112836 | 81 | 352 | 0.0 | 1.0 | 0.00 | 0.00 | 0.00 | 53 | 1015.6 |
| 20260905112332 | 81 | 51 | 1.0 | 3.0 | 0.00 | 0.00 | 0.00 | 53 | 1015.7 |
| 20260905111827 | 80 | 74 | 1.0 | 3.0 | 0.00 | 0.00 | 0.00 | 56 | 1015.5 |
| 20260905111327 | 80 | 75 | 1.0 | 2.0 | 0.00 | 0.00 | 0.00 | 57 | 1015.7 |
| 20260905110826 | 79 | 117 | 0.0 | 2.0 | 0.00 | 0.00 | 0.00 | 56 | 1015.5 |
| 20260905110320 | 79 | 117 | 0.0 | 0.0 | 0.00 | 0.00 | 0.00 | 57 | 1015.5 |
| 20260905105815 | 80 | 117 | 0.0 | 0.0 | 0.00 | 0.00 | 0.00 | 56 | 1015.3 |
| 20260905105314 | 81 | 103 | 0.0 | 1.0 | 0.00 | 0.00 | 0.00 | 55 | 1015.4 |
| 20260905104809 | 80 | 62 | 0.0 | 2.0 | 0.00 | 0.00 | 0.00 | 56 | 1015.4 |
| 20260905104306 | 80 | 32 | 0.0 | 2.0 | 0.00 | 0.00 | 0.00 | 58 | 1015.4 |
| 20260905103805 | 80 | 37 | 0.0 | 1.0 | 0.00 | 0.00 | 0.00 | 56 | 1015.5 |
| 20260905103300 | 80 | 101 | 1.0 | 2.0 | 0.00 | 0.00 | 0.00 | 57 | 1015.5 |
| 20260905102756 | 80 | 104 | 0.0 | 1.0 | 0.00 | 0.00 | 0.00 | 58 | 1015.1 |
| 20260905102253 | 80 | 99 | 1.0 | 2.0 | 0.00 | 0.00 | 0.00 | 57 | 1015.3 |
| 20260905101752 | 80 | 322 | 0.0 | 0.0 | 0.00 | 0.00 | 0.00 | 57 | 1015.1 |
| 20260905101251 | 80 | 322 | 0.0 | 2.0 | 0.00 | 0.00 | 0.00 | 57 | 1015.4 |
| 20260905100746 | 80 | 96 | 1.0 | 2.0 | 0.00 | 0.00 | 0.00 | 56 | 1015.4 |
| 20260905100241 | 81 | 89 | 0.0 | 2.0 | 0.00 | 0.00 | 0.00 | 56 | 1015.4 |
| 20260905095736 | 81 | 284 | 0.0 | 3.0 | 0.00 | 0.00 | 0.00 | 55 | 1015.1 |
| 20260905095235 | 80 | 126 | 1.0 | 2.0 | 0.00 | 0.00 | 0.00 | 55 | 1015.3 |
| 20260905094730 | 80 | 113 | 0.0 | 0.0 | 0.00 | 0.00 | 0.00 | 56 | 1015.3 |
| 20260905094225 | 81 | 107 | 0.0 | 1.0 | 0.00 | 0.00 | 0.00 | 55 | 1015.2 |
| 20260905093724 | 81 | 81 | 1.0 | 2.0 | 0.00 | 0.00 | 0.00 | 56 | 1015.2 |
| 20260905093220 | 80 | 131 | 1.0 | 3.0 | 0.00 | 0.00 | 0.00 | 57 | 1015.2 |
| 20260905092715 | 81 | 117 | 0.0 | 1.0 | 0.00 | 0.00 | 0.00 | 57 | 1015.2 |
| 20260905092211 | 81 | 89 | 0.0 | 2.0 | 0.00 | 0.00 | 0.00 | 55 | 1015.2 |
| 20260905091710 | 80 | 57 | 0.0 | 1.0 | 0.00 | 0.00 | 0.00 | 57 | 1015.3 |
| 20260905091206 | 81 | 104 | 1.0 | 2.0 | 0.00 | 0.00 | 0.00 | 57 | 1015.2 |
| 20260905090705 | 80 | 117 | 0.0 | 1.0 | 0.00 | 0.00 | 0.00 | 57 | 1015.1 |
| 20260905090201 | 80 | 25 | 0.0 | 1.0 | 0.00 | 0.00 | 0.00 | 57 | 1015.0 |
| 20260905085659 | 80 | 15 | 0.0 | 1.0 | 0.00 | 0.00 | 0.00 | 58 | 1015.1 |
| 20260905085155 | 80 | 113 | 0.0 | 1.0 | 0.00 | 0.00 | 0.00 | 57 | 1015.2 |
| 20260905084654 | 81 | 37 | 0.0 | 1.0 | 0.00 | 0.00 | 0.00 | 56 | 1015.0 |
| 20260905084149 | 80 | 66 | 0.0 | 1.0 | 0.00 | 0.00 | 0.00 | 56 | 1015.3 |
| 20260905083644 | 80 | 103 | 0.0 | 0.0 | 0.00 | 0.00 | 0.00 | 57 | 1015.4 |